Regional Weather Roundup
Issued by NWS Mt. Holly, NJ

Home | Current Version | Previous Version | Text Only | Print | Product List | Glossary On
Versions: 1 2 3 4 5 6 7 8 9 10 11 12 13 14 15 16 17 18 19 20 21 22 23 24 25 26 27 28 29 30 31 32 33 34 35 36 37 38 39 40 41 42 43 44 45 46 47 48 49 50
000
ASUS41 KPHI 052012
RWRPHI

REGIONAL WEATHER ROUNDUP
NATIONAL WEATHER SERVICE MOUNT HOLLY NJ
300 PM EST MON DEC 05 2016

NOTE:  "FAIR" INDICATES FEW OR NO CLOUDS BELOW 12,000 FEET WITH NO
SIGNIFICANT WEATHER AND/OR OBSTRUCTIONS TO VISIBILITY.

 * = STATION DOES NOT REPORT PRECIPITATION (E.G. RAIN, SNOW, ETC.)
        OR FOG.

NJZ015>026-052100-
SOUTHERN NEW JERSEY

CITY           SKY/WX    TMP DP  RH WIND       PRES   REMARKS
POMONA         MOSUNNY   50  38  63 NW9       30.00R
WILDWOOD*      MOSUNNY   48  42  80 NW5       30.01S
MILLVILLE      SUNNY     50  39  66 N10       30.01R
WRIGHTSTOWN    CLOUDY    48  37  66 NW10      29.97R
MOUNT HOLLY    SUNNY     49  34  56 NW8       30.00S
TRENTON        SUNNY     47  33  58 N12       30.00R

$$
NJZ001>014-052100-
NORTHERN NEW JERSEY

CITY           SKY/WX    TMP DP  RH WIND       PRES   REMARKS
SUSSEX         PTSUNNY   45  36  70 SW6       29.96R
ANDOVER*         N/A     43  35  73 VRB5      29.98R
MORRISTOWN     MOSUNNY   48  34  57 NW12G17   29.99R
NEWARK         MOSUNNY   50  33  52 W12       29.98R
TETERBORO      MOSUNNY   49  32  52 NW8       29.97R
CALDWELL       PTSUNNY   48  34  58 W8        29.98R
SOMERVILLE     SUNNY     48  33  56 NW9G18    29.98R
ALLAIRE*       PTSUNNY   50  35  56 NW13      29.99R
TOMS RIVER*    MOSUNNY   47  38  71 NW9       29.99S

$$
PAZ043-044-047-054-055-060>062-066>071-052100-
EASTERN PENNSYLVANIA

CITY           SKY/WX    TMP DP  RH WIND       PRES   REMARKS
PHILADELPHIA   PTSUNNY   50  34  54 NW13      30.01S
NORTH PHILA    PTSUNNY   51  36  56 NW10      30.02R
BLUE BELL*     PTSUNNY   45  34  65 W3        30.00R
DOYLESTOWN     PTSUNNY   50  36  58 NW8       29.99R
QUAKERTOWN*    PTSUNNY   46  36  66 N5        30.00S
PERKASIE*      FAIR      46  34  61 NW10G16   30.00S
POTTSTOWN      MOSUNNY   47  34  60 NW6       30.02R
LANCASTER      MOSUNNY   47  38  71 W8        30.02R
COATESVILLE    MOSUNNY   48  36  61 NW13      30.02R
READING        PTSUNNY   48  35  60 NW8       30.00R
ALLENTOWN      MOSUNNY   47  34  60 NW12      29.99R
MOUNT POCONO   CLOUDY    38  29  70 NW14G22   29.93R WCI  30
HAZLETON       CLOUDY    45  32  61 W10G20    29.99R
LEHIGHTON        N/A     46  32  57 W3        30.00R
WILKES BARRE   CLOUDY    45  35  68 W6        29.97R

$$
DEZALL-MDZ008-012-015-019-020-052100-
DELAWARE AND EASTERN MARYLAND

CITY           SKY/WX    TMP DP  RH WIND       PRES   REMARKS
WILMINGTON     SUNNY     51  36  56 NW14      30.03R
DOVER          SUNNY     52  41  67 NW10      30.00R
GEORGETOWN     MOSUNNY   51  39  63 NW6       30.01R
EASTON         MOSUNNY   54  39  58 N9G16     30.05S
ABERDEEN       PTSUNNY   52  35  52 VRB6      30.03R
PATUXENT       MOSUNNY   51  42  71 E6        30.02S
OCEAN CITY     MOSUNNY   50  41  71 N8        30.01S
WALLOPS ISLAND PTSUNNY   53  42  66 N10       30.01S
CAMBRIDGE      SUNNY     50  41  71 N5        30.02S
SALISBURY      PTSUNNY   52  40  63 NW12      30.01R

$$
PAZ001-021-NYZ056-072-MDZ011-DCZ001-052100-
OTHER NEARBY LOCATIONS

CITY           SKY/WX    TMP DP  RH WIND       PRES   REMARKS
HARRISBURG     PTSUNNY   50  34  54 NW13      30.02R
STATE COLLEGE  PTSUNNY   41  30  65 W12G28    30.02R
WILLIAMSPORT   MOSUNNY   49  29  46 NW22      30.00R
BINGHAMTON     CLOUDY    37  27  67 W14G20    29.94R WCI  28
NEW YORK CITY  MOSUNNY   48  33  56 NW10      30.00R
BALTIMORE      PTSUNNY   53  36  52 NW9       30.02R
WASHINGTON DC  PTSUNNY   56  37  49 N8        30.04R

$$



USA.gov is the U.S. government's official web portal to all federal, state and local government web resources and services.